TimeEST,TemperatureF,Dew PointF,Humidity,Sea Level PressureIn,VisibilityMPH,Wind Direction,Wind SpeedMPH,Gust SpeedMPH,PrecipitationIn,Events,Conditions,WindDirDegrees,DateUTC
12:15 AM,43.2,41.4,93,30.01,10.0,Calm,Calm,-,N/A,,Overcast,0,2012-12-07 05:15:00
12:35 AM,43.2,41.5,94,30.00,10.0,Calm,Calm,-,N/A,Rain,Light Rain,0,2012-12-07 05:35:00
12:55 AM,43.3,41.9,95,29.99,10.0,Calm,Calm,-,N/A,,Overcast,0,2012-12-07 05:55:00
1:15 AM,46.9,43.5,88,30.00,10.0,South,4.6,-,N/A,,Overcast,180,2012-12-07 06:15:00
1:35 AM,47.3,43.9,88,29.99,10.0,South,4.6,-,N/A,Rain,Light Rain,170,2012-12-07 06:35:00
1:55 AM,46.9,44.2,90,29.99,10.0,Calm,Calm,-,N/A,Rain,Light Rain,0,2012-12-07 06:55:00
2:15 AM,47.7,45.3,92,29.99,10.0,South,4.6,-,N/A,Rain,Light Rain,170,2012-12-07 07:15:00
2:35 AM,47.7,45.1,91,29.99,10.0,South,4.6,-,N/A,Rain,Light Rain,180,2012-12-07 07:35:00
2:55 AM,47.7,45.5,92,29.98,7.0,SSE,5.8,-,N/A,Rain,Rain,160,2012-12-07 07:55:00
3:15 AM,48.2,46.4,93,29.99,10.0,WSW,3.5,-,N/A,Rain,Light Rain,240,2012-12-07 08:15:00
3:35 AM,48.4,46.6,93,29.99,10.0,SSW,3.5,-,N/A,,Overcast,210,2012-12-07 08:35:00
3:55 AM,48.6,46.6,93,29.98,10.0,South,3.5,-,N/A,Rain,Light Rain,190,2012-12-07 08:55:00
4:15 AM,48.4,46.6,93,29.98,7.0,SSW,3.5,-,N/A,Rain,Light Rain,200,2012-12-07 09:15:00
4:35 AM,48.6,46.8,93,29.98,10.0,SSW,3.5,-,N/A,Rain,Light Rain,210,2012-12-07 09:35:00
4:55 AM,48.6,46.9,94,29.98,7.0,SSW,3.5,-,N/A,Rain,Rain,200,2012-12-07 09:55:00
5:15 AM,48.6,46.9,94,29.98,7.0,Calm,Calm,-,N/A,Rain,Rain,0,2012-12-07 10:15:00
5:35 AM,48.4,46.9,95,29.99,7.0,SSW,3.5,-,N/A,Rain,Rain,200,2012-12-07 10:35:00
5:55 AM,48.7,47.3,95,29.99,10.0,SSW,3.5,-,N/A,Rain,Light Rain,210,2012-12-07 10:55:00
6:15 AM,48.7,47.3,95,29.99,7.0,South,4.6,-,N/A,Rain,Rain,190,2012-12-07 11:15:00
6:35 AM,48.7,47.5,95,29.99,7.0,SSW,3.5,-,N/A,,Light Drizzle,210,2012-12-07 11:35:00
6:55 AM,49.1,47.7,95,29.99,10.0,South,3.5,-,N/A,,Overcast,190,2012-12-07 11:55:00
7:15 AM,49.1,47.8,95,30.00,5.0,SSW,3.5,-,N/A,,Light Drizzle,210,2012-12-07 12:15:00
7:35 AM,49.1,47.8,95,30.00,5.0,Calm,Calm,-,N/A,,Light Drizzle,0,2012-12-07 12:35:00
7:55 AM,49.1,48.0,96,30.00,5.0,SSW,3.5,-,N/A,,Light Drizzle,200,2012-12-07 12:55:00
8:15 AM,49.3,48.2,96,30.00,7.0,SSW,3.5,-,N/A,,Overcast,200,2012-12-07 13:15:00
8:35 AM,49.5,48.4,96,30.01,10.0,SSW,3.5,-,N/A,,Overcast,210,2012-12-07 13:35:00
8:55 AM,49.6,48.6,96,30.01,4.0,South,3.5,-,N/A,,Drizzle,180,2012-12-07 13:55:00
9:15 AM,50.0,48.9,96,30.00,10.0,South,3.5,-,N/A,,Overcast,180,2012-12-07 14:15:00
9:35 AM,50.0,49.1,97,30.00,10.0,SSW,4.6,-,N/A,Rain,Light Rain,200,2012-12-07 14:35:00
9:55 AM,50.4,49.3,96,30.01,10.0,SSW,3.5,-,N/A,Rain,Rain,200,2012-12-07 14:55:00
10:15 AM,50.5,49.3,95,30.01,7.0,SSE,3.5,-,N/A,Rain,Rain,160,2012-12-07 15:15:00
10:35 AM,50.9,49.5,95,30.01,10.0,South,4.6,-,N/A,Rain,Light Rain,190,2012-12-07 15:35:00
10:55 AM,50.9,49.5,95,30.01,10.0,Calm,Calm,-,N/A,Rain,Light Rain,0,2012-12-07 15:55:00
11:15 AM,51.3,50.0,95,30.00,10.0,South,4.6,-,N/A,Rain,Rain,180,2012-12-07 16:15:00
11:35 AM,51.4,50.0,95,30.00,7.0,South,4.6,-,N/A,Rain,Rain,180,2012-12-07 16:35:00
11:55 AM,51.8,50.0,94,29.98,7.0,Calm,Calm,-,N/A,Rain,Light Rain,0,2012-12-07 16:55:00
12:15 PM,51.8,50.0,94,29.97,7.0,Calm,Calm,-,N/A,Rain,Light Rain,0,2012-12-07 17:15:00
12:35 PM,51.8,50.2,94,29.97,10.0,SSW,4.6,-,N/A,Rain,Light Rain,200,2012-12-07 17:35:00
12:55 PM,51.8,50.2,94,29.96,7.0,South,3.5,-,N/A,Rain,Rain,180,2012-12-07 17:55:00
1:15 PM,52.0,50.5,95,29.95,10.0,South,4.6,-,N/A,Rain,Light Rain,190,2012-12-07 18:15:00
1:35 PM,52.0,50.5,95,29.94,7.0,South,3.5,-,N/A,Rain,Light Rain,180,2012-12-07 18:35:00
1:55 PM,52.2,50.7,95,29.94,10.0,South,3.5,-,N/A,,Drizzle,180,2012-12-07 18:55:00
2:15 PM,52.2,50.5,94,29.93,10.0,South,3.5,-,N/A,Rain,Rain,190,2012-12-07 19:15:00
2:35 PM,52.0,50.4,94,29.93,10.0,South,3.5,-,N/A,Rain,Light Rain,190,2012-12-07 19:35:00
2:55 PM,52.0,50.5,95,29.93,7.0,South,3.5,-,N/A,Rain,Light Rain,190,2012-12-07 19:55:00
3:15 PM,51.8,50.4,95,29.92,5.0,Calm,Calm,-,N/A,Rain,Light Rain,0,2012-12-07 20:15:00
3:35 PM,51.8,50.2,94,29.93,7.0,SSW,4.6,-,N/A,,Drizzle,200,2012-12-07 20:35:00
3:55 PM,51.6,50.0,94,29.92,7.0,Calm,Calm,-,N/A,,Drizzle,0,2012-12-07 20:55:00
4:15 PM,51.4,50.0,95,29.91,7.0,Calm,Calm,-,N/A,Rain,Light Rain,0,2012-12-07 21:15:00
4:35 PM,51.4,50.0,95,29.91,10.0,Calm,Calm,-,N/A,,Overcast,0,2012-12-07 21:35:00
4:55 PM,51.3,50.0,95,29.91,10.0,Calm,Calm,-,N/A,,Overcast,0,2012-12-07 21:55:00
5:15 PM,51.3,50.0,95,29.91,7.0,Calm,Calm,-,N/A,Rain,Rain,0,2012-12-07 22:15:00
5:35 PM,51.1,50.0,96,29.91,4.0,Calm,Calm,-,N/A,Rain,Rain,0,2012-12-07 22:35:00
5:55 PM,51.1,50.0,96,29.91,5.0,Calm,Calm,-,N/A,Rain,Light Rain,0,2012-12-07 22:55:00
6:15 PM,50.9,49.8,96,29.90,3.0,East,3.5,-,N/A,Rain,Light Rain,100,2012-12-07 23:15:00
6:55 PM,50.9,50.0,97,29.89,4.0,Calm,Calm,-,N/A,Rain,Rain,0,2012-12-07 23:55:00
7:15 PM,50.9,50.0,97,29.89,7.0,Calm,Calm,-,N/A,Rain,Light Rain,0,2012-12-08 00:15:00
7:35 PM,50.9,50.0,97,29.89,7.0,Calm,Calm,-,N/A,,Overcast,0,2012-12-08 00:35:00
7:55 PM,50.9,50.0,97,29.89,4.0,SSE,3.5,-,N/A,Rain,Light Rain,160,2012-12-08 00:55:00
8:15 PM,50.9,50.0,97,29.89,5.0,Calm,Calm,-,N/A,,Light Drizzle,0,2012-12-08 01:15:00
8:35 PM,50.9,50.0,97,29.89,4.0,Calm,Calm,-,N/A,Rain,Rain,0,2012-12-08 01:35:00
8:55 PM,51.1,50.0,96,29.90,7.0,WNW,12.7,-,N/A,Rain,Light Rain,290,2012-12-08 01:55:00
9:15 PM,51.3,50.2,96,29.89,5.0,Calm,Calm,-,N/A,,Drizzle,0,2012-12-08 02:15:00
9:35 PM,50.9,50.0,97,29.88,5.0,Calm,Calm,-,N/A,Rain,Light Rain,0,2012-12-08 02:35:00
9:55 PM,50.9,50.0,97,29.88,4.0,Calm,Calm,-,N/A,Rain,Heavy Rain,0,2012-12-08 02:55:00
10:15 PM,51.6,50.5,96,29.88,5.0,Calm,Calm,-,N/A,Rain,Rain,0,2012-12-08 03:15:00
10:35 PM,51.4,50.4,96,29.88,5.0,Calm,Calm,-,N/A,Rain,Light Rain,0,2012-12-08 03:35:00
10:55 PM,51.6,50.7,97,29.88,3.0,South,4.6,-,N/A,Rain,Heavy Rain,190,2012-12-08 03:55:00
11:15 PM,51.8,50.9,97,29.88,7.0,Calm,Calm,-,N/A,Rain,Light Rain,0,2012-12-08 04:15:00
11:35 PM,52.2,51.3,97,29.88,7.0,South,3.5,-,N/A,,Overcast,190,2012-12-08 04:35:00
11:55 PM,52.5,51.6,97,29.88,5.0,SSW,4.6,-,N/A,Rain,Rain,200,2012-12-08 04:55:00